| time (UTC) | temp F | wind direction | speed knots | gust knots | rain 1hr in | rain 24hr in | rain mn in | humidity % | barometer mb |
| 20260507223155 | 73 | 325 | 8.7 | 13.9 | 0.00 | 0.00 | 0.00 | 34 | 1016.8 |
| 20260507221532 | 72 | 336 | 7.8 | 14.8 | 0.00 | 0.00 | 0.00 | 35 | 1016.9 |
| 20260507220029 | 72 | 332 | 7.8 | 13.9 | 0.00 | 0.00 | 0.00 | 36 | 1017.1 |
| 20260507213146 | 71 | 351 | 7.0 | 13.9 | 0.00 | 0.00 | 0.00 | 37 | 1017.4 |
| 20260507211541 | 72 | 344 | 7.8 | 12.2 | 0.00 | 0.00 | 0.00 | 37 | 1017.5 |
| 20260507210030 | 73 | 326 | 7.0 | 13.0 | 0.00 | 0.00 | 0.00 | 36 | 1017.6 |
| 20260507204532 | 73 | 339 | 5.2 | 12.2 | 0.00 | 0.00 | 0.00 | 36 | 1017.9 |
| 20260507203028 | 73 | 46 | 4.3 | 9.6 | 0.00 | 0.00 | 0.00 | 37 | 1018.1 |
| 20260507201531 | 73 | 30 | 5.2 | 12.2 | 0.00 | 0.00 | 0.00 | 36 | 1018.2 |
| 20260507194531 | 72 | 336 | 2.6 | 7.8 | 0.00 | 0.00 | 0.00 | 39 | 1018.4 |
| 20260507193145 | 70 | 11 | 2.6 | 6.1 | 0.00 | 0.00 | 0.00 | 42 | 1018.5 |
| 20260507191530 | 70 | 333 | 3.5 | 8.7 | 0.00 | 0.00 | 0.00 | 43 | 1018.7 |
| 20260507190033 | 70 | 350 | 3.5 | 8.7 | 0.00 | 0.00 | 0.00 | 44 | 1018.8 |
| 20260507184529 | 68 | 330 | 2.6 | 7.0 | 0.00 | 0.00 | 0.00 | 46 | 1019.0 |
| 20260507183040 | 67 | 317 | 6.1 | 10.4 | 0.00 | 0.00 | 0.00 | 48 | 1019.1 |
| 20260507181531 | 66 | 318 | 5.2 | 9.6 | 0.00 | 0.00 | 0.00 | 52 | 1019.2 |
| 20260507180031 | 65 | 349 | 5.2 | 9.6 | 0.00 | 0.00 | 0.00 | 54 | 1019.3 |
| 20260507174532 | 63 | 327 | 5.2 | 9.6 | 0.00 | 0.00 | 0.00 | 59 | 1019.4 |
| 20260507171533 | 61 | 343 | 7.0 | 13.0 | 0.00 | 0.00 | 0.00 | 63 | 1019.6 |
| 20260507170032 | 60 | 339 | 7.0 | 11.3 | 0.00 | 0.00 | 0.00 | 65 | 1019.6 |
| 20260507164531 | 60 | 318 | 4.3 | 8.7 | 0.00 | 0.00 | 0.00 | 67 | 1019.6 |
| 20260507163032 | 60 | 264 | 4.3 | 8.7 | 0.00 | 0.00 | 0.00 | 66 | 1019.5 |
| 20260507161532 | 60 | 249 | 1.7 | 5.2 | 0.00 | 0.00 | 0.00 | 66 | 1019.8 |
| 20260507160032 | 60 | 246 | 3.5 | 6.1 | 0.00 | 0.00 | 0.00 | 68 | 1020.1 |
| 20260507154530 | 59 | 261 | 2.6 | 6.1 | 0.00 | 0.00 | 0.00 | 73 | 1020.2 |
| 20260507153031 | 57 | 227 | 1.7 | 6.1 | 0.00 | 0.00 | 0.00 | 81 | 1020.3 |
| 20260507151530 | 54 | 209 | 0.0 | 3.5 | 0.00 | 0.00 | 0.00 | 85 | 1020.4 |
| 20260507150034 | 52 | 307 | 1.7 | 3.5 | 0.00 | 0.00 | 0.00 | 89 | 1020.4 |
| 20260507134532 | 45 | 160 | 0.0 | 3.5 | 0.00 | 0.00 | 0.00 | 91 | 1020.1 |
| 20260507133028 | 44 | 157 | 0.9 | 2.6 | 0.00 | 0.00 | 0.00 | 91 | 1020.1 |
| 20260507131606 | 45 | 157 | 0.9 | 3.5 | 0.00 | 0.00 | 0.00 | 91 | 1020.1 |
| 20260507124530 | 45 | 63 | 0.0 | 2.6 | 0.00 | 0.00 | 0.00 | 90 | 1020.0 |
| 20260507123107 | 45 | 117 | 1.7 | 4.3 | 0.00 | 0.00 | 0.00 | 90 | 1019.8 |
| 20260507121531 | 45 | 93 | 1.7 | 4.3 | 0.00 | 0.00 | 0.00 | 89 | 1019.7 |
| 20260507120029 | 46 | 101 | 0.9 | 3.5 | 0.00 | 0.00 | 0.00 | 88 | 1019.7 |
| 20260507114534 | 46 | 132 | 0.9 | 3.5 | 0.00 | 0.00 | 0.00 | 87 | 1019.5 |
| 20260507113030 | 47 | 23 | 0.0 | 2.6 | 0.00 | 0.00 | 0.00 | 86 | 1019.5 |
| 20260507111531 | 47 | 111 | 1.7 | 3.5 | 0.00 | 0.00 | 0.00 | 85 | 1019.3 |
| 20260507110029 | 48 | 68 | 0.9 | 3.5 | 0.00 | 0.00 | 0.00 | 84 | 1019.3 |
| 20260507104607 | 49 | 109 | 2.6 | 5.2 | 0.00 | 0.00 | 0.00 | 83 | 1019.2 |
| 20260507103106 | 50 | 87 | 2.6 | 6.1 | 0.00 | 0.00 | 0.00 | 82 | 1019.1 |
| 20260507101531 | 51 | 79 | 4.3 | 7.8 | 0.00 | 0.00 | 0.00 | 80 | 1019.0 |
| 20260507100036 | 52 | 49 | 2.6 | 6.1 | 0.00 | 0.00 | 0.00 | 80 | 1019.1 |
| 20260507094531 | 51 | 337 | 3.5 | 6.1 | 0.00 | 0.00 | 0.00 | 82 | 1019.1 |
| 20260507093031 | 51 | 36 | 1.7 | 7.0 | 0.00 | 0.00 | 0.00 | 83 | 1019.2 |
| 20260507091605 | 51 | 55 | 2.6 | 7.8 | 0.00 | 0.00 | 0.00 | 82 | 1019.2 |
| 20260507090032 | 52 | 95 | 1.7 | 5.2 | 0.00 | 0.00 | 0.00 | 82 | 1019.1 |
| 20260507081531 | 53 | 33 | 1.7 | 5.2 | 0.00 | 0.00 | 0.00 | 79 | 1019.3 |
| 20260507074531 | 54 | 26 | 1.7 | 4.3 | 0.00 | 0.00 | 0.00 | 75 | 1019.3 |
| 20260507071532 | 54 | 317 | 2.6 | 6.1 | 0.00 | 0.00 | 0.00 | 74 | 1019.2 |
| 20260507070029 | 53 | 320 | 0.9 | 3.5 | 0.00 | 0.00 | 0.00 | 75 | 1019.3 |
| 20260507064532 | 54 | 317 | 0.0 | 2.6 | 0.00 | 0.00 | 0.00 | 74 | 1019.4 |
| 20260507063030 | 55 | 22 | 0.0 | 2.6 | 0.00 | 0.00 | 0.00 | 71 | 1019.5 |
| 20260507061530 | 56 | 12 | 1.7 | 4.3 | 0.00 | 0.00 | 0.00 | 67 | 1019.6 |
| 20260507054531 | 59 | 283 | 4.3 | 7.8 | 0.00 | 0.00 | 0.00 | 61 | 1019.7 |
| 20260507051529 | 59 | 261 | 7.8 | 12.2 | 0.00 | 0.00 | 0.00 | 58 | 1019.6 |
| 20260507050029 | 59 | 264 | 5.2 | 8.7 | 0.00 | 0.00 | 0.00 | 56 | 1019.8 |
| 20260507044529 | 60 | 269 | 2.6 | 5.2 | 0.00 | 0.00 | 0.00 | 54 | 1019.9 |
| 20260507043029 | 61 | 255 | 0.0 | 4.3 | 0.00 | 0.00 | 0.00 | 52 | 1019.8 |
| 20260507041607 | 62 | 276 | 3.5 | 13.0 | 0.00 | 0.00 | 0.00 | 52 | 1019.7 |
| 20260507040035 | 62 | 273 | 7.0 | 13.0 | 0.00 | 0.00 | 0.00 | 52 | 1019.5 |
| 20260507034531 | 62 | 274 | 5.2 | 11.3 | 0.00 | 0.00 | 0.00 | 52 | 1019.5 |
| 20260507024607 | 65 | 286 | 9.6 | 19.1 | 0.00 | 0.00 | 0.00 | 50 | 1018.8 |
| 20260507023029 | 65 | 285 | 9.6 | 17.4 | 0.00 | 0.00 | 0.00 | 50 | 1018.9 |
| 20260507021530 | 66 | 288 | 7.0 | 14.8 | 0.00 | 0.00 | 0.00 | 49 | 1018.8 |
| 20260507020029 | 66 | 282 | 7.8 | 13.0 | 0.00 | 0.00 | 0.00 | 49 | 1018.7 |
| 20260507014529 | 67 | 275 | 6.1 | 13.0 | 0.00 | 0.00 | 0.00 | 48 | 1018.6 |
| 20260507013030 | 67 | 278 | 6.1 | 14.8 | 0.00 | 0.00 | 0.00 | 48 | 1018.5 |
| 20260507011530 | 68 | 285 | 7.0 | 13.0 | 0.00 | 0.00 | 0.00 | 46 | 1018.4 |
| 20260507010031 | 68 | 286 | 8.7 | 19.1 | 0.00 | 0.00 | 0.00 | 45 | 1018.3 |
| 20260507004529 | 69 | 286 | 8.7 | 16.5 | 0.00 | 0.00 | 0.00 | 45 | 1018.2 |
| 20260507003031 | 69 | 282 | 8.7 | 16.5 | 0.00 | 0.00 | 0.00 | 45 | 1018.1 |
| 20260507001605 | 69 | 281 | 7.0 | 13.9 | 0.00 | 0.00 | 0.00 | 46 | 1018.0 |
| 20260507000029 | 71 | 300 | 6.1 | 15.6 | 0.00 | 0.00 | 0.00 | 46 | 1017.9 |
| 20260506234531 | 71 | 285 | 7.8 | 15.6 | 0.00 | 0.00 | 0.00 | 45 | 1017.7 |
| 20260506233032 | 73 | 301 | 6.1 | 12.2 | 0.00 | 0.00 | 0.00 | 44 | 1017.8 |
| 20260506231530 | 74 | 297 | 7.0 | 16.5 | 0.00 | 0.00 | 0.00 | 43 | 1017.7 |
| 20260506230031 | 75 | 298 | 7.0 | 13.9 | 0.00 | 0.00 | 0.00 | 44 | 1018.0 |
| 20260506224528 | 75 | 309 | 7.0 | 16.5 | 0.00 | 0.00 | 0.00 | 44 | 1018.1 |